Time,TemperatureF,DewpointF,PressureIn,WindDirection,WindDirectionDegrees,WindSpeedMPH,WindSpeedGustMPH,Humidity,HourlyPrecipIn,Conditions,Clouds,dailyrainin,SoftwareType,DateUTC
2013-03-13 00:01:00,41.0,33.0,30.14,SW,227,0.0,-999.0,73,-99.99,,,0.00,weatherlink.com 1.10,2013-03-13 05:01:00,
2013-03-13 00:16:00,40.3,33.0,30.14,SW,227,0.0,-999.0,74,-99.99,,,0.00,weatherlink.com 1.10,2013-03-13 05:16:00,
2013-03-13 00:31:00,40.0,32.0,30.14,SW,227,0.0,-999.0,74,-99.99,,,0.00,weatherlink.com 1.10,2013-03-13 05:31:00,
2013-03-13 00:46:00,39.8,32.0,30.14,SW,227,0.0,-999.0,73,-99.99,,,0.00,weatherlink.com 1.10,2013-03-13 05:46:00,
2013-03-13 01:01:00,39.6,32.0,30.14,SSE,163,0.0,-999.0,73,-99.99,,,0.00,weatherlink.com 1.10,2013-03-13 06:01:00,
2013-03-13 01:16:00,38.9,31.0,30.13,SSE,163,1.0,-999.0,74,-99.99,,,0.00,weatherlink.com 1.10,2013-03-13 06:16:00,
2013-03-13 01:31:00,39.1,31.0,30.13,SSE,163,0.0,-999.0,73,-99.99,,,0.00,weatherlink.com 1.10,2013-03-13 06:31:00,
2013-03-13 01:46:00,38.8,31.0,30.13,SSE,163,0.0,-999.0,73,-99.99,,,0.00,weatherlink.com 1.10,2013-03-13 06:46:00,
2013-03-13 02:01:00,38.6,31.0,30.13,SSE,163,0.0,-999.0,73,-99.99,,,0.00,weatherlink.com 1.10,2013-03-13 07:01:00,
2013-03-13 02:16:00,38.4,30.0,30.13,SSE,163,0.0,-999.0,72,-99.99,,,0.00,weatherlink.com 1.10,2013-03-13 07:16:00,
2013-03-13 02:31:00,38.3,31.0,30.13,SSE,163,0.0,-999.0,74,-99.99,,,0.00,weatherlink.com 1.10,2013-03-13 07:31:00,
2013-03-13 02:46:00,37.9,30.0,30.13,SSE,163,0.0,-999.0,74,-99.99,,,0.00,weatherlink.com 1.10,2013-03-13 07:46:00,
2013-03-13 03:01:00,38.1,30.0,30.12,SSE,163,0.0,-999.0,73,-99.99,,,0.00,weatherlink.com 1.10,2013-03-13 08:01:00,
2013-03-13 03:16:00,37.7,30.0,30.13,SSE,163,2.0,-999.0,75,-99.99,,,0.00,weatherlink.com 1.10,2013-03-13 08:16:00,
2013-03-13 03:31:00,37.6,30.0,30.13,SSE,163,0.0,-999.0,74,-99.99,,,0.00,weatherlink.com 1.10,2013-03-13 08:31:00,
2013-03-13 03:46:00,37.3,29.0,30.13,SSE,163,0.0,-999.0,73,-99.99,,,0.00,weatherlink.com 1.10,2013-03-13 08:46:00,
2013-03-13 04:01:00,36.1,30.0,30.14,SSE,163,0.0,-999.0,77,-99.99,,,0.00,weatherlink.com 1.10,2013-03-13 09:01:00,
2013-03-13 04:16:00,35.2,30.0,30.14,SSE,163,0.0,-999.0,80,-99.99,,,0.00,weatherlink.com 1.10,2013-03-13 09:16:00,
2013-03-13 04:31:00,34.9,29.0,30.14,SSE,163,0.0,-999.0,80,-99.99,,,0.00,weatherlink.com 1.10,2013-03-13 09:31:00,
2013-03-13 04:46:00,35.3,29.0,30.14,SSE,163,0.0,-999.0,79,-99.99,,,0.00,weatherlink.com 1.10,2013-03-13 09:46:00,
2013-03-13 05:01:00,34.2,29.0,30.14,SSE,163,0.0,-999.0,82,-99.99,,,0.00,weatherlink.com 1.10,2013-03-13 10:01:00,
2013-03-13 05:16:00,34.0,29.0,30.15,SSE,163,0.0,-999.0,81,-99.99,,,0.00,weatherlink.com 1.10,2013-03-13 10:16:00,
2013-03-13 05:31:00,34.3,29.0,30.15,SSE,163,0.0,-999.0,81,-99.99,,,0.00,weatherlink.com 1.10,2013-03-13 10:31:00,
2013-03-13 05:46:00,36.0,29.0,30.15,SSW,202,1.0,-999.0,77,-99.99,,,0.00,weatherlink.com 1.10,2013-03-13 10:46:00,
2013-03-13 06:01:00,37.8,30.0,30.16,WNW,298,3.0,-999.0,73,-99.99,,,0.00,weatherlink.com 1.10,2013-03-13 11:01:00,
2013-03-13 06:16:00,40.7,29.0,30.16,WNW,284,0.0,-999.0,64,-99.99,,,0.00,weatherlink.com 1.10,2013-03-13 11:16:00,
2013-03-13 06:31:00,41.1,29.0,30.17,WNW,301,7.0,-999.0,63,-99.99,,,0.00,weatherlink.com 1.10,2013-03-13 11:31:00,
2013-03-13 06:46:00,40.9,30.0,30.18,NW,306,5.0,-999.0,65,-99.99,,,0.00,weatherlink.com 1.10,2013-03-13 11:46:00,
2013-03-13 07:01:00,40.5,30.0,30.19,WNW,296,6.0,-999.0,66,-99.99,,,0.00,weatherlink.com 1.10,2013-03-13 12:01:00,
2013-03-13 07:16:00,40.1,30.0,30.20,WNW,282,4.0,-999.0,67,-99.99,,,0.00,weatherlink.com 1.10,2013-03-13 12:16:00,
2013-03-13 07:31:00,39.7,30.0,30.20,NW,309,0.0,-999.0,68,-99.99,,,0.00,weatherlink.com 1.10,2013-03-13 12:31:00,
2013-03-13 07:46:00,39.8,30.0,30.21,WNW,282,2.0,-999.0,68,-99.99,,,0.00,weatherlink.com 1.10,2013-03-13 12:46:00,
2013-03-13 08:01:00,40.7,30.0,30.21,NW,318,0.0,-999.0,66,-99.99,,,0.00,weatherlink.com 1.10,2013-03-13 13:01:00,
2013-03-13 08:16:00,41.5,30.0,30.21,NW,318,5.0,-999.0,65,-99.99,,,0.00,weatherlink.com 1.10,2013-03-13 13:16:00,
2013-03-13 08:31:00,42.1,30.0,30.21,NW,308,12.0,-999.0,62,-99.99,,,0.00,weatherlink.com 1.10,2013-03-13 13:31:00,
2013-03-13 08:46:00,42.2,29.0,30.22,NW,309,13.0,-999.0,60,-99.99,,,0.00,weatherlink.com 1.10,2013-03-13 13:46:00,
2013-03-13 09:01:00,42.5,29.0,30.23,NNW,328,12.0,-999.0,60,-99.99,,,0.00,weatherlink.com 1.10,2013-03-13 14:01:00,
2013-03-13 09:16:00,42.5,29.0,30.23,WNW,299,14.0,-999.0,60,-99.99,,,0.00,weatherlink.com 1.10,2013-03-13 14:16:00,
2013-03-13 09:31:00,43.1,29.0,30.23,WNW,302,11.0,-999.0,59,-99.99,,,0.00,weatherlink.com 1.10,2013-03-13 14:31:00,
2013-03-13 09:46:00,43.4,30.0,30.24,NW,323,12.0,-999.0,59,-99.99,,,0.00,weatherlink.com 1.10,2013-03-13 14:46:00,
2013-03-13 10:01:00,43.9,29.0,30.24,NW,323,16.0,-999.0,56,-99.99,,,0.00,weatherlink.com 1.10,2013-03-13 15:01:00,
2013-03-13 10:16:00,44.0,27.0,30.24,NNW,329,15.0,-999.0,51,-99.99,,,0.00,weatherlink.com 1.10,2013-03-13 15:16:00,
2013-03-13 10:31:00,44.3,25.0,30.25,WNW,296,8.0,-999.0,47,-99.99,,,0.00,weatherlink.com 1.10,2013-03-13 15:31:00,
2013-03-13 10:46:00,44.9,25.0,30.25,WNW,293,16.0,-999.0,46,-99.99,,,0.00,weatherlink.com 1.10,2013-03-13 15:46:00,
2013-03-13 11:01:00,45.5,27.0,30.25,NW,311,12.0,-999.0,48,-99.99,,,0.00,weatherlink.com 1.10,2013-03-13 16:01:00,
2013-03-13 11:31:00,45.8,26.0,30.25,NNW,345,13.0,-999.0,46,-99.99,,,0.00,weatherlink.com 1.10,2013-03-13 16:31:00,
2013-03-13 11:46:00,46.0,26.0,30.25,WNW,296,27.0,-999.0,46,-99.99,,,0.00,weatherlink.com 1.10,2013-03-13 16:46:00,
2013-03-13 12:01:00,47.4,28.0,30.25,WNW,282,14.0,-999.0,47,-99.99,,,0.00,weatherlink.com 1.10,2013-03-13 17:01:00,
2013-03-13 12:16:00,47.0,25.0,30.25,WNW,302,10.0,-999.0,42,-99.99,,,0.00,weatherlink.com 1.10,2013-03-13 17:16:00,
2013-03-13 12:31:00,47.3,24.0,30.25,WNW,300,4.0,-999.0,41,-99.99,,,0.00,weatherlink.com 1.10,2013-03-13 17:31:00,
2013-03-13 12:46:00,47.2,27.0,30.25,NNW,333,16.0,-999.0,46,-99.99,,,0.00,weatherlink.com 1.10,2013-03-13 17:46:00,
2013-03-13 13:01:00,47.8,27.0,30.24,WNW,292,16.0,-999.0,45,-99.99,,,0.00,weatherlink.com 1.10,2013-03-13 18:01:00,
2013-03-13 13:16:00,47.7,25.0,30.24,NW,321,18.0,-999.0,42,-99.99,,,0.00,weatherlink.com 1.10,2013-03-13 18:16:00,
2013-03-13 13:31:00,48.1,28.0,30.24,NW,312,15.0,-999.0,45,-99.99,,,0.00,weatherlink.com 1.10,2013-03-13 18:31:00,
2013-03-13 13:46:00,48.3,29.0,30.23,NW,319,14.0,-999.0,47,-99.99,,,0.00,weatherlink.com 1.10,2013-03-13 18:46:00,
2013-03-13 14:01:00,48.8,28.0,30.23,NW,318,15.0,-999.0,44,-99.99,,,0.00,weatherlink.com 1.10,2013-03-13 19:01:00,
2013-03-13 14:16:00,48.7,28.0,30.23,WNW,296,12.0,-999.0,45,-99.99,,,0.00,weatherlink.com 1.10,2013-03-13 19:16:00,
2013-03-13 14:31:00,49.0,28.0,30.22,WNW,291,11.0,-999.0,45,-99.99,,,0.00,weatherlink.com 1.10,2013-03-13 19:31:00,
2013-03-13 14:46:00,48.6,26.0,30.22,WNW,295,0.0,-999.0,41,-99.99,,,0.00,weatherlink.com 1.10,2013-03-13 19:46:00,
2013-03-13 15:01:00,49.0,26.0,30.23,WNW,293,10.0,-999.0,41,-99.99,,,0.00,weatherlink.com 1.10,2013-03-13 20:01:00,
2013-03-13 15:16:00,49.0,25.0,30.22,WNW,298,5.0,-999.0,39,-99.99,,,0.00,weatherlink.com 1.10,2013-03-13 20:16:00,
2013-03-13 15:31:00,49.5,25.0,30.22,West,269,13.0,-999.0,38,-99.99,,,0.00,weatherlink.com 1.10,2013-03-13 20:31:00,
2013-03-13 15:46:00,49.4,25.0,30.23,NNW,331,18.0,-999.0,39,-99.99,,,0.00,weatherlink.com 1.10,2013-03-13 20:46:00,
2013-03-13 16:16:00,49.5,25.0,30.23,NW,317,18.0,-999.0,38,-99.99,,,0.00,weatherlink.com 1.10,2013-03-13 21:16:00,
2013-03-13 16:46:00,49.0,25.0,30.24,WNW,296,9.0,-999.0,39,-99.99,,,0.00,weatherlink.com 1.10,2013-03-13 21:46:00,
2013-03-13 17:02:00,49.0,23.0,30.24,NW,317,16.0,-999.0,36,-99.99,,,0.00,weatherlink.com 1.10,2013-03-13 22:02:00,
2013-03-13 17:16:00,48.7,22.0,30.24,WNW,290,19.0,-999.0,35,-99.99,,,0.00,weatherlink.com 1.10,2013-03-13 22:16:00,
2013-03-13 17:31:00,48.9,22.0,30.25,WSW,252,6.0,-999.0,35,-99.99,,,0.00,weatherlink.com 1.10,2013-03-13 22:31:00,
2013-03-13 18:01:00,48.3,22.0,30.25,West,273,8.0,-999.0,36,-99.99,,,0.00,weatherlink.com 1.10,2013-03-13 23:01:00,
2013-03-13 18:16:00,48.1,23.0,30.25,NNW,336,10.0,-999.0,37,-99.99,,,0.00,weatherlink.com 1.10,2013-03-13 23:16:00,
2013-03-13 18:31:00,47.4,22.0,30.25,WNW,301,9.0,-999.0,37,-99.99,,,0.00,weatherlink.com 1.10,2013-03-13 23:31:00,
2013-03-13 19:01:00,46.2,23.0,30.26,WNW,300,16.0,-999.0,40,-99.99,,,0.00,weatherlink.com 1.10,2013-03-14 00:01:00,
2013-03-13 19:31:00,45.4,22.0,30.27,WNW,298,7.0,-999.0,40,-99.99,,,0.00,weatherlink.com 1.10,2013-03-14 00:31:00,
2013-03-13 19:47:00,44.9,23.0,30.27,NNW,332,9.0,-999.0,42,-99.99,,,0.00,weatherlink.com 1.10,2013-03-14 00:47:00,
2013-03-13 20:01:00,44.4,24.0,30.27,NW,313,5.0,-999.0,44,-99.99,,,0.00,weatherlink.com 1.10,2013-03-14 01:01:00,
2013-03-13 20:16:00,44.0,25.0,30.28,NNW,331,7.0,-999.0,48,-99.99,,,0.00,weatherlink.com 1.10,2013-03-14 01:16:00,
2013-03-13 20:31:00,43.8,25.0,30.28,NNW,336,10.0,-999.0,47,-99.99,,,0.00,weatherlink.com 1.10,2013-03-14 01:31:00,
2013-03-13 21:31:00,41.6,23.0,30.31,NNW,331,12.0,-999.0,48,-99.99,,,0.00,weatherlink.com 1.10,2013-03-14 02:31:00,
2013-03-13 21:46:00,41.1,23.0,30.31,NNW,331,11.0,-999.0,48,-99.99,,,0.00,weatherlink.com 1.10,2013-03-14 02:46:00,
2013-03-13 22:16:00,40.5,24.0,30.32,NNW,333,10.0,-999.0,53,-99.99,,,0.00,weatherlink.com 1.10,2013-03-14 03:16:00,
2013-03-13 22:32:00,40.2,24.0,30.32,NW,325,7.0,-999.0,52,-99.99,,,0.00,weatherlink.com 1.10,2013-03-14 03:32:00,
2013-03-13 22:46:00,39.9,24.0,30.33,NNW,335,11.0,-999.0,53,-99.99,,,0.00,weatherlink.com 1.10,2013-03-14 03:46:00,
2013-03-13 23:31:00,38.9,25.0,30.34,North,350,10.0,-999.0,57,-99.99,,,0.00,weatherlink.com 1.10,2013-03-14 04:31:00,
2013-03-13 23:46:00,38.3,24.0,30.34,NNW,341,8.0,-999.0,56,-99.99,,,0.00,weatherlink.com 1.10,2013-03-14 04:46:00,